Regional Weather Roundup
Issued by NWS Albany, NY

Home | Current Version | Previous Version | Text Only | Print | Product List | Glossary On
Versions: 1 2 3 4 5 6 7 8 9 10 11 12 13 14 15 16 17 18 19 20 21 22 23 24 25 26 27 28 29 30 31 32 33 34 35 36 37 38 39 40 41 42 43 44 45 46 47 48 49 50
000
ASUS41 KALY 200310
RWRALY

NEW YORK STATE HOURLY WEATHER ROUNDUP
NATIONAL WEATHER SERVICE ALBANY NY
1100 PM EDT TUE AUG 19 2014

NOTE: "FAIR" INDICATES FEW OR NO CLOUDS BELOW 12,000 FEET WITH NO
SIGNIFICANT WEATHER AND/OR NO OBSTRUCTIONS TO VISIBILITY.

NYZ032-033-038>043-046>054-057>066-NYZ062>081-200400-
EAST


CITY           SKY/WX    TMP DP  RH WIND       PRES   REMARKS
ALBANY         MOCLDY    64  54  69 CALM      29.93R
GLENS FALLS    CLEAR     56  54  93 CALM      29.94R
POUGHKEEPSIE   PTCLDY    64  59  83 E3        29.93R
NEWBURGH       PTCLDY    70  63  78 CALM      29.94S
MONTGOMERY     PTCLDY    63  58  83 CALM      29.93R
WHITE PLAINS   PTCLDY    64  62  93 SE3       29.94R
ISLIP          MOCLDY    67  63  87 CALM      29.93R
NEW YORK CITY  MOCLDY    72  65  78 SE7       29.92S
CENTRAL PARK   PTCLDY    71  64  78 VRB5      29.96R
$$

NYZ005>009-017-018-044>046-055-056-200400-
CENTRAL


CITY           SKY/WX    TMP DP  RH WIND       PRES   REMARKS
FULTON         PTCLDY    66  59  78 CALM      29.87S
SYRACUSE       MOCLDY    67  61  81 NE5       29.87S
ROME           CLOUDY    67  57  70 E7        29.91S
ELMIRA         CLEAR     63  62  97 CALM      29.90S
BINGHAMTON     PTCLDY    68  62  81 S6        29.94R
MONTICELLO     CLOUDY    66  57  72 NE5       29.98R
$$

NYZ026>034-041>043-200400-
NORTH


CITY           SKY/WX    TMP DP  RH WIND       PRES   REMARKS
WATERTOWN      PTCLDY    60  53  77 E5        29.88F
FORT DRUM      NOT AVBL
MASSENA        PTCLDY    59  55  87 E5        29.92S
SARANAC LAKE   CLEAR     48  47  96 CALM      29.96R
PLATTSBURGH    CLEAR     55  54  96 CALM      29.94R
$$

NYZ001>004-010>016-019>021-200400-
WEST


CITY           SKY/WX    TMP DP  RH WIND       PRES   REMARKS
NIAGARA FALLS  CLOUDY    67  63  87 E8        29.84F
BUFFALO        MOCLDY    69  56  62 E8        29.86S
DUNKIRK        PTCLDY    65  60  84 CALM      29.84F
JAMESTOWN      PTCLDY    66  57  72 SE6       29.91R
WELLSVILLE     CLEAR     67  63  87 S3        29.96R
ROCHESTER      CLEAR     66  57  72 CALM      29.87S
PENN YAN       CLEAR     69  65  86 SW8       29.89R
$$

             KEY
       WCI = WIND CHILL INDEX
       VSB = VISIBILITY
       HX  = HEAT INDEX
$$



USA.gov is the U.S. government's official web portal to all federal, state and local government web resources and services.